Total_Precipitation_Accumulation
1.79 1.87 1.60 1.51 1.48 1.67 1.92 1.88 1.76 1.82 1.93 1.95 1.78 1.68 1.50 1.21 1.07 1.06 1.16 1.48 1.50 1.51 1.71 1.75 1.70 1.60 1.45 1.27 1.15 1.04 0.98 0.91 0.78 0.63 0.55 0.45 0.35 0.30 0.20 0.13 0.10 0.08 0.06
1.72 1.60 1.59 1.58 1.49 1.64 1.70 1.77 1.81 1.97 2.02 2.13 1.85 1.72 1.58 1.43 1.32 1.27 1.22 1.47 1.49 1.41 1.53 1.76 1.83 1.83 1.81 1.63 1.44 1.31 1.18 1.08 0.90 0.68 0.59 0.52 0.43 0.36 0.30 0.24 0.22 0.15 0.10
1.62 1.63 1.55 1.43 1.47 1.57 1.67 1.72 1.75 1.83 1.74 1.79 1.72 1.68 1.62 1.50 1.46 1.36 1.27 1.22 1.13 1.30 1.46 1.62 1.74 1.80 1.90 1.85 1.78 1.67 1.43 1.21 1.02 0.77 0.59 0.55 0.49 0.41 0.36 0.31 0.30 0.25 0.19
1.36 1.41 1.29 1.28 1.38 1.29 1.30 1.35 1.34 1.36 1.39 1.51 1.49 1.37 1.36 1.38 1.35 1.36 1.25 1.11 1.06 0.92 1.22 1.56 1.67 1.58 1.74 1.93 2.07 2.07 1.68 1.28 1.05 0.87 0.68 0.56 0.53 0.43 0.33 0.27 0.25 0.28 0.22
0.84 0.90 0.87 0.90 0.95 0.96 0.96 0.93 1.08 1.15 1.21 1.31 1.35 1.17 1.12 1.22 1.23 1.23 1.17 0.99 1.05 0.96 0.95 1.17 1.41 1.40 1.64 1.98 2.26 2.32 2.06 1.59 1.20 1.05 0.92 0.78 0.72 0.56 0.39 0.31 0.26 0.23 0.19
0.67 0.65 0.63 0.64 0.61 0.65 0.71 0.75 0.78 0.87 0.89 0.94 0.96 0.91 0.94 0.89 0.97 0.99 0.90 0.91 0.86 0.74 0.75 0.93 1.22 1.11 1.41 1.76 2.00 2.15 2.21 2.07 1.68 1.35 1.16 1.11 1.06 0.83 0.52 0.39 0.32 0.28 0.21
0.49 0.51 0.46 0.45 0.44 0.43 0.44 0.47 0.54 0.59 0.61 0.70 0.75 0.70 0.65 0.61 0.66 0.66 0.68 0.75 0.71 0.71 0.75 0.85 0.99 1.04 1.03 1.17 1.34 1.63 2.05 2.23 2.07 1.71 1.43 1.26 1.20 1.03 0.68 0.50 0.40 0.37 0.34
0.34 0.33 0.33 0.35 0.34 0.32 0.33 0.35 0.39 0.39 0.41 0.52 0.59 0.62 0.54 0.50 0.48 0.43 0.51 0.49 0.52 0.69 0.74 0.74 0.83 0.99 0.99 1.14 0.96 1.11 1.60 2.00 2.26 2.14 1.84 1.51 1.30 1.10 0.86 0.68 0.52 0.44 0.40
0.24 0.25 0.25 0.26 0.29 0.30 0.31 0.34 0.34 0.34 0.33 0.34 0.44 0.57 0.54 0.45 0.38 0.36 0.39 0.43 0.51 0.60 0.65 0.76 0.78 0.77 0.81 0.98 1.13 1.12 1.22 1.41 1.95 2.35 2.29 1.84 1.39 1.08 0.96 0.90 0.79 0.65 0.52
0.19 0.18 0.18 0.17 0.19 0.24 0.30 0.30 0.34 0.34 0.32 0.26 0.30 0.40 0.44 0.47 0.47 0.40 0.38 0.40 0.49 0.56 0.58 0.61 0.64 0.73 0.85 0.97 1.08 1.10 0.95 1.03 1.42 1.93 2.21 2.07 1.65 1.27 1.04 1.03 1.18 1.11 0.84
0.19 0.19 0.19 0.17 0.16 0.16 0.21 0.23 0.31 0.35 0.36 0.31 0.29 0.33 0.36 0.38 0.42 0.41 0.32 0.31 0.38 0.37 0.41 0.48 0.60 0.66 0.76 0.96 1.17 1.05 0.85 0.80 0.96 1.32 1.63 1.78 1.73 1.47 1.22 1.14 1.40 1.55 1.33
0.19 0.18 0.19 0.19 0.19 0.18 0.15 0.16 0.20 0.27 0.34 0.37 0.32 0.30 0.37 0.39 0.39 0.42 0.31 0.24 0.28 0.25 0.28 0.32 0.44 0.58 0.72 0.88 0.90 0.91 0.91 0.85 0.86 0.95 1.11 1.29 1.45 1.45 1.37 1.39 1.58 1.77 1.79
0.17 0.16 0.17 0.18 0.19 0.20 0.19 0.17 0.16 0.19 0.26 0.32 0.31 0.32 0.34 0.33 0.40 0.41 0.33 0.27 0.31 0.31 0.42 0.41 0.46 0.64 0.70 0.91 0.90 0.90 0.90 0.86 0.75 0.70 0.75 0.84 0.97 1.15 1.31 1.39 1.55 1.72 1.88
0.23 0.22 0.17 0.16 0.17 0.18 0.19 0.19 0.17 0.17 0.21 0.26 0.28 0.38 0.37 0.29 0.36 0.38 0.39 0.44 0.44 0.46 0.52 0.51 0.60 0.83 1.05 1.07 1.06 0.94 0.77 0.74 0.65 0.61 0.56 0.58 0.65 0.76 0.87 0.99 1.13 1.25 1.37
0.25 0.23 0.19 0.16 0.15 0.17 0.18 0.19 0.19 0.21 0.23 0.26 0.32 0.41 0.43 0.39 0.40 0.41 0.45 0.56 0.63 0.54 0.54 0.64 0.76 0.85 0.95 0.97 0.96 0.85 0.69 0.68 0.61 0.55 0.50 0.47 0.48 0.53 0.60 0.65 0.69 0.76 0.84
0.21 0.19 0.18 0.14 0.13 0.14 0.16 0.18 0.19 0.23 0.27 0.32 0.40 0.45 0.51 0.51 0.52 0.51 0.52 0.60 0.73 0.72 0.66 0.67 0.75 0.76 0.76 0.62 0.64 0.64 0.61 0.63 0.55 0.50 0.48 0.45 0.42 0.43 0.46 0.51 0.55 0.57 0.60
0.20 0.18 0.17 0.15 0.14 0.14 0.16 0.19 0.21 0.22 0.26 0.32 0.38 0.44 0.48 0.56 0.62 0.64 0.69 0.70 0.74 0.84 0.79 0.66 0.77 0.86 0.78 0.61 0.51 0.52 0.53 0.54 0.51 0.50 0.47 0.46 0.44 0.43 0.42 0.41 0.45 0.49 0.48
0.18 0.17 0.17 0.15 0.13 0.13 0.17 0.21 0.23 0.24 0.26 0.30 0.37 0.47 0.50 0.52 0.58 0.65 0.77 0.79 0.81 0.94 0.93 0.79 0.85 0.94 0.86 0.74 0.61 0.54 0.44 0.43 0.44 0.48 0.47 0.48 0.47 0.44 0.42 0.40 0.38 0.37 0.37
0.20 0.20 0.20 0.18 0.16 0.15 0.16 0.18 0.23 0.27 0.31 0.33 0.37 0.44 0.51 0.59 0.61 0.66 0.75 0.79 0.85 1.00 1.05 0.97 0.96 1.07 1.10 0.89 0.67 0.52 0.42 0.43 0.39 0.43 0.45 0.47 0.47 0.44 0.40 0.39 0.40 0.36 0.32
0.20 0.24 0.26 0.26 0.24 0.21 0.20 0.20 0.20 0.23 0.27 0.32 0.40 0.43 0.46 0.56 0.65 0.70 0.78 0.89 0.97 1.06 1.14 1.11 1.14 1.24 1.24 1.11 0.86 0.58 0.49 0.46 0.44 0.40 0.42 0.42 0.43 0.41 0.38 0.34 0.33 0.33 0.33
0.30 0.38 0.39 0.37 0.35 0.31 0.24 0.22 0.23 0.21 0.23 0.26 0.32 0.38 0.39 0.44 0.54 0.66 0.73 0.84 1.01 1.16 1.31 1.36 1.36 1.52 1.47 1.29 1.02 0.72 0.60 0.53 0.50 0.47 0.44 0.37 0.35 0.33 0.31 0.31 0.30 0.30 0.29
0.52 0.54 0.50 0.49 0.49 0.38 0.33 0.29 0.27 0.25 0.26 0.28 0.32 0.39 0.39 0.39 0.42 0.48 0.58 0.71 0.85 1.01 1.21 1.39 1.51 1.61 1.66 1.53 1.33 1.07 0.75 0.56 0.50 0.51 0.50 0.47 0.42 0.38 0.34 0.30 0.31 0.29 0.29
0.57 0.59 0.58 0.58 0.57 0.55 0.45 0.34 0.28 0.27 0.30 0.34 0.38 0.41 0.35 0.30 0.37 0.40 0.44 0.51 0.60 0.71 0.86 1.08 1.27 1.37 1.54 1.67 1.54 1.24 0.96 0.75 0.60 0.57 0.56 0.50 0.48 0.46 0.42 0.38 0.40 0.34 0.30
0.70 0.70 0.67 0.66 0.68 0.66 0.55 0.42 0.37 0.32 0.34 0.36 0.40 0.42 0.40 0.36 0.38 0.43 0.48 0.46 0.45 0.48 0.57 0.68 0.83 1.05 1.26 1.48 1.54 1.42 1.32 1.06 0.81 0.65 0.60 0.52 0.45 0.42 0.43 0.41 0.41 0.37 0.34
0.78 0.79 0.81 0.82 0.81 0.77 0.65 0.47 0.41 0.39 0.42 0.42 0.44 0.46 0.49 0.44 0.39 0.36 0.42 0.42 0.41 0.41 0.41 0.49 0.60 0.81 1.05 1.22 1.41 1.41 1.30 1.16 0.93 0.69 0.57 0.51 0.43 0.41 0.40 0.36 0.37 0.38 0.36
0.70 0.73 0.76 0.83 0.87 0.86 0.76 0.55 0.47 0.44 0.48 0.50 0.54 0.55 0.51 0.43 0.39 0.31 0.36 0.41 0.39 0.37 0.43 0.43 0.48 0.58 0.70 0.95 1.16 1.20 1.12 1.05 0.92 0.71 0.53 0.48 0.41 0.40 0.41 0.32 0.26 0.28 0.29